Location: Gila Cliff Dwellings National Monument
(33.2240°N, 108.2417°W)
Time: 02:44:46
(UTC-06:00)

Cosmos 2322 Rocket - Visible Passes

Search period start: 16 April 2014 00:00
Search period end: 26 April 2014 00:00
Orbit: 831 x 853 km, 71.0° (Epoch: 16 April)

Date Brightness Start Highest point End Pass type
(mag) Time Alt. Az. Time Alt. Az. Time Alt. Az.
22 Apr 4.4 06:03:40 10° SSE 06:08:23 28° ESE 06:13:08 10° NE visible
23 Apr 4.4 05:48:53 10° SSE 05:53:30 26° ESE 05:58:09 10° NE visible
24 Apr 4.4 05:34:07 10° SSE 05:38:37 25° ESE 05:43:09 10° NE visible
25 Apr 4.5 05:19:22 10° SSE 05:23:45 23° E 05:28:09 10° NE visible
